Theta_e
339 339 338 338 338 339 339 338 338 338 338 337 337 337 337 338 337 336 336 336 336 336 337 336 336 336 337 337 336 336 336 335 335 335 334 334 333 333 332 332 332 333 333 333 332 332 331 331 331 331 332 332 330 330 329 329 330 331 332 332 331 331 331 331 331 331 331 330 330 329 329 330 330 330 330 330 331 331 331 331 331 331 330 329 330
339 338 337 338 338 338 338 337 338 338 338 337 337 337 338 338 337 337 336 336 336 336 336 336 336 336 336 336 336 336 335 335 335 334 334 334 334 333 333 332 332 332 332 332 332 331 330 330 330 331 332 332 331 331 328 327 329 330 331 331 331 332 331 331 332 332 332 332 331 331 330 330 330 330 330 329 329 330 330 330 331 331 331 330 329
338 337 337 337 337 337 338 337 337 338 338 338 337 337 337 337 337 336 336 336 336 336 336 336 336 335 336 335 336 335 335 335 334 334 333 333 333 333 333 332 332 332 332 332 331 330 329 329 330 331 331 332 332 332 330 329 330 330 330 330 331 332 332 331 331 332 332 332 332 332 331 330 330 330 329 329 329 329 329 329 330 330 331 331 330
336 335 337 337 336 336 337 338 337 337 338 337 337 336 336 336 335 335 335 335 336 336 336 336 335 335 335 335 335 335 335 335 335 334 334 334 334 333 333 333 333 332 332 332 331 331 330 330 330 330 331 332 332 332 332 331 331 331 331 332 332 332 331 330 330 331 332 332 332 332 332 331 331 330 330 329 329 329 329 329 329 330 331 331 331
335 335 336 335 335 336 336 337 337 336 337 337 336 336 336 336 335 335 334 334 335 335 334 334 334 334 333 333 334 334 334 334 335 334 334 334 334 334 333 333 333 332 332 331 331 330 330 330 331 331 331 332 333 332 332 331 331 332 332 333 332 332 331 331 331 331 331 332 332 331 331 331 331 331 330 330 330 330 329 329 329 329 330 331 331
335 334 333 332 334 336 336 336 336 336 337 336 336 336 335 335 335 335 334 334 334 333 332 333 333 333 332 332 332 333 333 333 333 333 332 333 333 333 333 333 332 332 332 331 331 330 330 330 330 331 331 332 332 331 331 331 331 332 332 332 332 332 332 332 332 331 331 332 331 331 331 331 331 331 331 330 330 330 330 329 329 329 329 330 331
334 331 330 332 333 334 334 335 335 335 334 334 335 334 334 335 334 334 333 333 333 332 332 333 334 334 333 332 332 332 333 333 333 332 332 333 333 332 332 332 332 331 331 331 331 331 330 331 331 330 331 331 331 331 331 331 331 331 332 332 332 332 332 332 331 331 331 331 331 331 331 331 331 331 330 330 330 330 330 330 330 329 329 329 330
332 328 328 332 332 331 332 333 334 334 334 333 334 334 334 334 334 333 332 332 331 331 331 332 333 334 333 333 333 333 333 333 332 332 332 332 332 332 331 331 331 331 331 331 331 331 331 331 331 331 331 331 331 331 331 331 331 331 331 331 331 331 331 331 330 330 330 330 330 330 330 330 330 330 329 330 330 330 330 330 330 329 329 329 329
330 327 328 331 330 330 332 332 333 333 333 332 332 333 333 332 332 332 331 331 330 330 330 330 331 331 332 332 333 333 333 333 332 331 331 331 330 330 330 330 330 330 330 330 330 330 330 331 331 331 331 331 330 330 331 331 330 330 330 330 330 329 329 329 329 329 329 329 329 329 329 329 329 329 329 329 330 329 329 329 329 330 329 328 329
327 325 326 328 326 327 330 330 330 329 329 329 330 331 331 330 330 330 330 329 329 328 328 327 327 329 330 330 331 331 332 332 332 331 330 329 329 329 329 329 328 328 329 329 329 329 330 330 331 331 331 330 330 329 330 330 329 329 329 329 328 328 328 328 328 328 328 328 328 327 327 328 329 329 329 329 329 329 329 329 329 329 329 329 329
324 322 323 325 324 325 327 327 327 326 326 327 327 329 329 328 329 329 328 326 324 324 324 324 324 325 327 328 329 329 329 329 330 329 329 328 328 328 328 327 327 327 328 328 328 329 330 330 330 330 330 330 329 329 328 328 327 327 328 328 328 328 328 328 328 328 328 327 327 326 326 326 327 328 328 328 328 329 329 329 329 329 329 329 329
321 321 321 322 322 322 323 324 323 322 324 325 325 326 326 326 326 325 323 321 319 319 319 320 322 323 324 325 326 326 326 327 326 326 326 325 325 325 326 326 327 327 327 326 326 328 328 329 329 329 329 328 328 327 327 327 327 327 327 327 327 327 327 327 327 327 327 327 326 326 325 325 326 327 328 328 328 328 328 329 329 329 328 328 329
320 320 320 320 321 321 321 321 321 320 322 323 323 324 324 322 321 320 319 318 317 317 316 317 319 321 322 323 323 324 324 324 323 323 323 322 322 322 322 323 323 323 324 324 326 326 327 326 326 326 326 325 325 325 326 327 328 327 327 327 326 326 325 326 326 325 326 326 325 325 324 324 324 326 327 328 327 327 328 329 328 328 328 328 328
319 319 319 319 319 319 319 319 319 319 319 321 322 322 320 319 318 317 317 316 316 316 315 315 316 317 319 320 321 321 322 322 322 321 321 320 319 318 319 319 320 320 321 322 323 323 323 323 323 323 323 323 324 325 326 326 327 327 326 325 324 323 323 324 324 324 324 324 324 324 323 323 324 325 327 327 327 327 327 328 328 328 328 328 328
319 318 318 318 318 318 318 318 317 317 318 319 320 319 317 317 317 316 316 315 315 315 315 314 314 315 316 317 318 318 319 319 319 318 318 318 318 318 318 319 319 319 319 319 320 320 321 321 321 321 322 322 323 323 324 325 325 324 323 322 322 323 324 324 324 324 324 324 324 324 323 324 325 325 326 327 328 327 328 328 328 328 328 328 327
318 317 317 317 317 317 317 317 317 317 317 317 317 317 316 317 316 316 315 314 314 314 313 313 313 313 314 314 315 315 316 316 315 315 315 316 316 316 317 318 318 318 318 319 319 319 319 319 319 320 320 321 322 322 322 323 323 322 322 322 323 323 323 324 324 324 324 324 325 325 324 324 325 325 326 327 328 328 327 328 328 328 328 328 327
317 317 317 316 316 316 316 316 316 316 316 316 316 315 316 316 316 315 314 314 313 313 313 312 312 312 312 313 313 314 314 314 314 314 314 314 314 315 316 317 317 317 317 318 319 319 319 319 319 319 319 319 320 320 321 321 322 323 323 323 323 323 324 324 324 324 324 323 324 325 326 325 325 325 326 327 327 328 328 328 328 328 328 327 327
316 316 316 316 316 315 315 315 315 315 315 315 315 315 316 316 315 314 314 313 313 313 312 312 311 312 312 312 312 312 313 313 312 312 312 312 313 314 315 316 316 316 317 317 318 318 319 319 319 318 318 318 318 319 319 320 321 322 323 322 322 323 324 324 324 324 324 324 324 324 325 325 324 324 326 326 327 328 328 328 328 328 328 327 327
316 316 316 316 315 315 315 315 315 315 315 315 315 315 315 315 314 314 314 313 313 312 312 311 311 311 311 311 311 311 312 312 311 311 311 311 312 312 313 314 315 316 317 317 318 318 318 317 317 317 317 317 317 317 317 318 318 320 321 321 322 323 323 323 323 323 323 323 324 324 324 324 324 324 325 326 327 327 328 328 328 328 328 328 328
316 315 315 315 315 315 314 315 314 314 314 314 314 314 314 314 314 313 313 313 312 312 311 311 311 311 311 310 310 310 311 310 310 310 310 310 311 311 312 313 313 314 315 315 316 316 316 317 316 316 316 316 315 316 316 316 317 318 319 320 321 321 321 321 321 321 322 322 323 324 324 324 324 325 325 326 327 327 328 328 328 327 328 329 329
315 315 315 314 314 314 314 314 314 314 314 314 314 314 313 313 313 312 312 312 312 311 311 311 311 310 310 310 309 310 310 310 310 309 309 310 311 311 311 312 312 312 312 313 314 314 315 315 314 314 314 313 313 314 314 315 316 317 318 319 319 319 319 319 319 319 320 322 323 323 324 325 325 325 326 326 326 327 327 327 327 327 328 329 328
314 314 314 314 313 313 313 313 313 313 313 313 313 313 312 312 311 311 311 311 311 311 311 310 309 308 308 308 308 309 310 311 311 310 310 310 311 311 311 311 311 311 311 312 312 313 313 313 312 312 312 312 312 312 312 313 314 316 317 318 318 319 319 319 318 318 319 322 323 323 324 325 325 325 326 326 326 327 327 327 327 328 328 328 328
314 313 313 313 312 312 312 313 313 313 313 312 312 312 311 310 310 309 309 310 309 309 308 308 307 306 306 306 306 307 308 309 309 309 309 309 310 310 310 310 311 311 311 311 311 311 312 311 312 311 311 311 312 311 312 312 313 314 315 316 317 318 318 318 318 318 320 322 324 324 324 325 325 325 325 326 326 326 327 327 328 329 328 328 327
312 312 312 311 311 310 311 312 312 312 312 312 311 310 309 308 307 307 307 306 306 306 305 305 304 304 305 305 305 304 305 305 306 306 306 306 306 307 307 308 308 309 309 310 310 310 310 310 310 310 310 310 310 310 310 311 311 312 313 314 315 316 317 318 318 318 320 323 324 325 324 325 325 325 325 325 325 325 325 326 327 328 329 329 328
311 311 310 310 310 310 310 311 311 311 311 310 309 308 307 306 306 306 305 305 304 304 304 304 304 304 303 303 303 303 303 303 303 303 303 303 303 303 304 304 305 305 306 307 307 308 308 308 308 308 307 307 308 308 308 309 310 310 311 312 313 315 316 317 318 318 319 322 324 325 325 325 325 325 326 326 325 325 325 325 326 327 329 329 328
310 310 310 310 309 309 310 310 310 311 310 308 307 307 306 306 306 305 305 304 304 304 304 303 303 303 303 303 303 302 302 302 302 302 301 300 300 300 301 302 302 303 303 304 304 305 305 305 305 305 305 305 305 306 306 307 308 308 309 310 311 313 314 316 317 318 319 321 323 324 324 325 325 325 326 326 325 325 325 326 327 328 328 328 328
310 310 310 309 309 309 309 309 310 309 308 307 306 307 306 306 306 305 305 304 304 304 303 303 303 302 302 302 302 302 302 301 301 300 299 297 297 297 298 299 300 300 300 300 300 301 302 302 303 303 303 304 304 305 305 305 306 306 307 308 309 311 312 314 315 316 318 320 322 323 323 324 325 325 326 326 326 325 326 326 327 327 327 328 328
310 309 309 309 308 308 308 309 309 308 306 306 306 306 306 306 305 305 305 305 304 303 303 303 302 302 302 301 301 301 301 300 299 297 296 295 295 296 296 297 297 297 297 297 297 298 298 299 300 301 302 302 303 303 304 304 304 305 306 307 308 309 310 312 313 315 316 318 320 321 322 322 324 325 325 325 325 326 326 326 327 327 326 327 327
310 309 309 308 307 307 308 308 308 307 306 306 306 306 306 305 305 305 305 304 304 303 302 302 302 301 301 300 300 301 300 299 297 295 294 294 294 295 295 295 295 295 295 295 295 295 296 296 297 298 299 300 301 301 301 302 302 303 304 305 306 307 308 310 311 312 314 315 317 319 320 321 322 324 324 324 325 325 325 325 326 326 326 326 327
309 309 308 307 307 307 308 308 307 306 306 305 305 305 305 304 304 304 304 304 303 302 302 301 300 298 298 298 298 299 298 296 295 294 294 294 294 294 294 294 294 294 294 294 294 294 294 295 295 295 296 297 298 299 300 300 301 302 303 304 305 306 307 307 308 310 312 313 315 316 318 320 321 322 323 324 325 325 325 325 325 325 326 326 326
309 308 308 307 307 307 307 307 307 306 306 305 305 304 303 302 302 303 303 303 302 302 301 299 297 296 296 296 296 296 296 295 295 295 295 294 294 294 294 294 294 294 294 294 294 294 294 294 294 294 295 296 297 298 298 299 300 300 301 302 303 304 305 306 306 308 309 311 313 314 316 318 319 320 322 323 324 324 324 324 325 325 325 326 326
309 308 308 308 307 306 306 306 306 306 305 305 304 303 302 302 302 302 302 302 302 301 299 297 296 296 295 295 295 295 295 295 295 295 294 294 294 294 294 294 294 294 294 294 294 294 294 294 294 293 294 295 297 297 298 298 299 299 300 301 301 302 303 304 305 306 307 308 310 312 313 315 316 317 319 321 322 323 323 323 323 323 324 325 326
308 308 308 308 307 306 306 306 306 305 305 304 304 303 302 301 300 301 301 301 301 299 297 296 296 296 296 296 295 295 295 294 294 294 294 294 294 294 294 294 294 293 293 294 294 294 294 294 293 293 293 294 296 297 297 298 298 298 298 299 300 301 301 302 303 304 305 306 307 309 310 311 312 313 316 318 320 322 322 322 322 322 322 323 325
307 307 307 307 307 306 305 305 305 304 304 304 303 303 302 301 300 300 300 300 299 297 296 296 296 296 296 296 296 295 295 294 294 294 294 294 294 294 293 293 293 293 293 293 294 294 294 294 293 293 293 294 295 296 296 297 297 298 298 298 298 299 300 301 301 302 303 304 304 306 307 308 309 310 312 314 317 319 321 322 322 322 322 322 324
307 307 306 306 306 305 305 304 304 304 303 303 303 303 302 301 300 299 299 298 297 297 297 297 297 297 297 296 296 296 295 295 294 294 294 294 293 293 293 293 293 293 293 293 293 294 294 294 293 293 294 294 294 295 296 296 297 297 297 297 297 298 298 299 300 300 301 302 302 304 304 305 306 307 308 309 312 315 318 320 321 321 322 322 322
307 307 306 306 306 305 305 304 303 303 303 302 303 302 302 300 299 298 297 297 297 297 297 297 297 297 297 297 296 296 296 295 295 294 294 294 294 293 293 293 293 293 293 293 293 293 293 293 293 293 294 294 294 295 295 296 296 297 297 297 297 297 297 298 298 299 300 300 301 301 302 303 304 305 306 307 308 311 313 316 319 321 321 321 321
307 307 306 306 305 305 305 304 303 303 302 302 302 302 301 300 299 298 297 298 298 298 297 297 297 297 297 297 297 296 296 296 295 295 295 294 294 293 293 293 293 293 293 293 293 293 293 293 293 293 294 294 294 295 295 295 296 297 297 296 296 296 296 297 297 298 298 299 299 300 300 301 302 303 304 305 306 308 310 312 315 319 321 321 321
306 306 306 305 305 305 304 304 303 302 302 302 302 301 301 300 299 298 298 298 298 298 298 297 297 297 297 297 297 297 296 296 296 295 295 294 294 294 293 293 293 293 293 293 293 293 293 293 293 293 293 294 295 295 296 296 296 297 297 297 296 296 296 296 296 297 297 298 298 299 299 300 300 301 302 303 304 306 308 310 312 316 319 321 321
306 306 305 305 305 304 304 303 303 302 302 301 301 301 300 300 299 298 298 299 298 298 298 298 298 297 297 297 297 297 297 296 296 296 295 295 294 294 294 293 293 293 293 293 293 293 293 293 294 293 293 293 294 295 296 296 296 297 297 296 296 296 295 295 295 295 296 297 297 298 298 298 299 299 300 301 302 304 306 307 309 312 315 318 320
306 305 305 305 304 304 303 302 302 301 301 301 301 300 300 300 299 298 298 299 299 299 298 298 298 298 297 297 297 297 297 297 297 296 296 295 294 294 294 293 293 293 293 293 293 293 293 293 294 294 293 293 293 295 296 296 296 297 297 296 296 295 295 295 295 295 295 296 297 297 297 298 298 298 299 300 301 302 304 306 307 309 312 316 319
305 305 305 304 304 303 302 302 301 301 301 301 300 300 300 300 299 298 298 298 299 299 299 298 298 298 298 298 297 297 297 297 297 297 296 295 295 294 294 294 294 293 293 293 293 293 293 293 294 294 293 293 293 295 296 296 295 296 296 296 296 295 295 294 294 294 295 296 296 296 297 297 298 298 299 300 301 302 303 305 306 308 310 313 316
305 305 304 304 303 303 302 301 301 301 301 300 300 300 300 300 299 299 299 298 299 299 299 299 299 298 298 298 298 297 297 297 297 297 296 295 295 294 294 294 294 294 293 293 293 293 293 293 293 294 294 293 293 294 295 295 295 295 295 296 295 295 294 294 294 294 295 296 296 296 296 297 297 298 299 299 300 301 302 304 305 307 309 311 314
304 304 303 303 303 302 301 301 301 301 301 300 300 300 299 299 299 299 299 299 299 299 299 299 299 299 298 298 298 297 297 297 297 297 296 295 295 294 294 294 294 294 293 293 293 293 293 293 293 293 294 293 293 294 294 294 294 294 295 296 295 294 294 294 293 294 295 295 296 296 296 296 297 298 298 299 300 301 301 303 304 305 307 310 313
304 303 303 302 302 301 301 301 300 300 300 300 299 299 299 299 299 299 299 299 298 298 298 299 299 299 298 298 298 297 297 297 297 297 296 295 295 294 294 294 294 294 294 293 293 293 293 293 293 293 294 293 293 293 294 294 294 294 295 296 295 294 294 293 293 294 295 295 295 296 296 296 297 298 298 299 299 300 300 302 303 305 306 308 310
303 303 303 302 301 301 301 300 300 300 300 300 299 299 299 299 299 299 299 299 298 298 298 298 299 299 298 298 298 298 297 297 297 297 296 296 295 294 294 294 294 294 294 294 293 293 293 293 293 293 293 293 293 293 293 293 294 295 296 296 294 294 293 293 293 293 294 295 295 296 296 296 296 297 297 298 299 299 300 301 302 303 305 306 307
303 303 302 302 301 301 300 300 300 300 300 299 299 299 299 299 299 299 299 299 299 298 298 298 299 299 298 298 298 298 297 297 297 297 296 296 295 294 294 294 294 294 294 294 293 293 293 293 293 293 293 293 293 293 293 293 293 294 295 295 294 293 293 292 292 293 294 294 295 295 295 296 296 296 296 297 298 298 299 300 300 301 302 303 304
302 302 301 301 301 300 300 300 300 300 300 299 299 299 299 299 299 299 298 298 298 298 298 299 299 299 298 298 298 298 297 297 297 297 296 296 295 294 294 294 294 294 294 294 294 293 293 293 293 293 293 293 293 293 293 293 293 294 294 294 293 293 293 292 292 293 293 294 294 295 295 295 295 295 296 296 297 297 298 299 299 300 300 301 302
302 301 301 301 301 300 300 300 300 300 300 300 299 299 299 299 299 298 298 298 298 298 298 298 299 299 298 298 298 298 297 297 297 296 296 295 295 294 294 294 294 294 294 295 294 293 293 293 293 293 293 293 293 293 293 293 293 293 294 294 293 292 292 292 292 293 293 293 293 294 294 294 294 294 295 295 295 296 297 297 298 298 299 300 301
302 302 301 300 301 301 300 300 300 300 300 300 300 299 299 299 299 298 298 297 297 297 298 298 299 298 298 298 298 297 296 296 296 296 296 295 294 294 294 294 294 295 295 295 294 294 293 293 293 293 293 293 292 292 292 293 293 293 294 293 292 292 292 292 292 293 293 292 292 293 293 293 293 293 294 294 294 295 295 296 297 297 298 298 299
302 302 301 300 300 301 300 300 300 300 300 300 299 299 299 299 299 298 298 298 298 297 298 298 298 298 297 297 297 296 296 295 295 295 295 295 295 294 294 294 294 295 295 295 294 294 293 293 293 293 293 293 292 292 292 292 293 293 293 292 292 292 292 292 292 293 293 292 292 292 292 292 293 293 293 294 294 294 295 295 295 296 297 297 298
302 301 300 300 300 301 300 300 300 300 300 300 299 299 299 299 299 299 299 299 299 298 298 298 298 298 297 297 297 296 296 295 295 295 295 295 295 295 294 294 294 295 295 295 295 294 294 294 293 293 293 293 292 292 292 292 292 292 292 292 292 293 292 291 292 293 293 293 293 292 292 292 292 293 293 293 293 294 294 294 294 295 295 296 297
Wind_Speed
23 21 20 20 19 18 17 16 15 14 12 11 10 10 9 9 8 8 8 8 7 7 7 8 9 9 8 7 7 8 8 9 9 9 9 9 9 9 10 11 11 11 11 12 12 12 12 12 13 13 12 13 13 13 13 13 14 16 17 18 19 20 21 20 19 20 23 25 26 25 24 25 27 28 28 29 29 29 28 28 28 28 28 27 24
24 22 20 20 19 17 16 16 16 15 14 12 11 11 10 9 9 8 8 8 8 8 9 10 10 10 10 9 8 8 9 10 10 10 10 10 10 9 10 10 10 10 11 12 13 14 14 13 13 13 13 14 14 13 13 14 14 15 17 17 18 19 20 20 19 20 22 24 26 27 26 25 26 28 29 30 30 30 30 30 30 29 29 27 25
28 24 23 20 18 17 16 16 15 15 13 12 12 12 11 10 9 8 7 7 8 8 10 11 11 11 11 10 10 9 9 9 9 10 10 9 9 9 9 8 8 9 10 12 13 14 14 15 15 14 14 15 16 15 15 15 15 15 16 17 17 18 20 21 20 21 21 22 24 25 26 26 27 27 28 29 29 29 30 31 32 31 29 27 28
30 24 22 18 17 17 17 16 15 14 13 11 11 11 10 9 8 8 7 7 7 8 9 11 12 11 11 12 12 12 11 10 9 9 9 8 8 8 8 8 8 9 9 11 12 13 15 16 16 16 16 15 16 16 17 17 16 16 16 17 18 19 21 22 23 22 22 21 20 21 23 23 24 25 26 27 26 26 27 28 30 32 31 29 30
28 23 21 19 19 18 16 17 15 14 14 12 10 9 8 8 7 8 8 7 7 8 10 12 12 12 12 13 13 13 14 13 11 11 10 8 8 8 9 10 10 11 11 12 13 14 16 16 17 17 17 15 16 17 17 18 17 17 18 18 19 20 21 23 24 24 23 22 21 23 22 19 22 24 24 25 25 24 24 24 25 28 31 31 32
24 22 22 22 22 20 16 16 16 15 14 12 11 10 10 9 8 8 8 8 9 10 11 12 13 13 13 14 14 15 15 16 15 14 13 12 12 11 12 12 12 12 12 13 14 15 15 16 17 17 17 16 17 18 18 18 18 18 18 19 19 19 20 23 25 25 24 24 24 26 25 24 27 29 26 25 26 26 25 24 24 24 27 30 32
23 21 21 20 19 19 17 15 15 14 12 12 12 12 11 10 7 7 9 10 11 12 12 13 13 14 15 16 17 18 18 18 18 18 17 15 15 15 16 16 15 13 12 12 12 13 13 14 16 17 16 16 17 18 18 18 18 18 18 18 19 18 19 23 25 25 26 27 26 27 28 29 31 32 31 29 27 26 26 26 25 24 24 27 31
23 20 19 19 16 15 15 14 13 12 12 11 11 11 10 8 7 8 11 13 15 16 17 16 16 16 16 17 16 16 18 20 21 21 20 19 18 19 20 19 18 16 15 14 13 13 13 13 14 15 15 15 16 16 17 18 18 18 19 19 20 20 21 23 25 25 26 28 28 27 29 30 31 32 32 30 29 30 29 27 27 27 26 26 28
20 18 18 18 15 13 12 11 11 10 10 10 10 10 9 7 7 10 13 17 20 21 21 20 19 18 19 19 16 15 16 17 19 21 21 22 22 22 22 21 20 19 18 18 17 17 17 16 16 17 17 17 16 16 16 17 19 20 21 22 22 23 23 24 26 26 26 27 27 27 28 29 30 31 31 30 32 33 32 30 30 29 28 27 28
18 16 16 16 14 12 11 9 8 7 7 7 6 8 8 7 9 12 16 20 23 24 23 21 19 18 19 20 19 17 17 17 18 20 22 23 23 23 23 22 21 21 20 20 20 19 18 18 18 19 20 19 19 18 18 18 20 22 23 23 23 24 25 25 26 28 28 28 27 27 27 28 30 31 31 31 31 32 33 33 31 30 30 30 30
17 16 15 14 12 10 10 8 7 5 4 4 4 5 8 9 12 16 18 17 16 16 17 18 18 17 17 18 19 19 20 20 21 22 23 24 24 24 23 21 21 23 23 22 20 19 19 19 20 20 21 21 21 21 21 22 23 24 25 25 25 26 27 28 29 30 31 31 29 28 28 29 30 31 32 33 33 33 33 34 34 33 33 33 33
18 17 15 13 11 9 8 6 6 6 3 1 2 4 8 11 13 14 10 6 5 6 7 10 13 15 16 17 18 19 20 21 22 23 24 24 23 22 21 21 22 23 23 22 21 21 22 22 22 23 23 23 22 22 22 23 25 26 27 27 28 29 30 30 31 32 32 33 32 31 30 30 31 31 31 33 35 35 35 35 35 34 33 33 33
17 16 14 12 9 8 7 7 8 6 3 0 4 6 8 8 6 4 1 2 4 6 6 4 5 9 13 14 16 17 18 19 20 20 21 19 18 16 15 15 16 17 18 20 21 22 22 23 23 24 24 23 22 22 22 22 24 26 27 28 29 31 32 33 33 34 34 33 33 33 32 31 32 31 31 33 34 34 35 36 35 34 32 31 31
16 14 13 11 10 9 9 10 10 8 6 3 3 6 4 1 1 1 3 4 6 7 8 7 3 2 7 10 12 15 16 17 17 17 16 14 12 11 10 10 10 10 11 13 17 18 19 20 21 22 23 24 24 24 24 24 25 26 27 29 31 32 33 33 33 33 33 33 32 33 33 32 33 32 32 33 34 33 33 34 35 34 32 30 29
15 14 13 12 11 10 10 12 11 9 8 5 1 1 2 4 4 3 5 6 7 8 8 8 7 4 1 3 6 8 9 10 11 10 10 9 9 8 7 8 8 8 9 10 13 15 16 17 19 20 22 23 24 25 25 25 25 26 27 29 30 30 29 28 28 28 29 30 31 31 31 31 32 32 31 31 33 33 32 33 34 33 30 27 27
16 15 15 13 12 11 12 12 10 9 8 7 6 5 6 6 5 4 6 7 8 8 8 8 7 6 4 3 2 3 4 4 5 5 6 7 7 7 7 9 9 10 11 11 13 16 16 16 18 19 21 22 23 23 23 22 22 24 25 26 25 23 23 24 24 25 26 27 27 28 28 29 31 31 29 29 29 30 30 31 33 34 31 27 25
17 16 16 15 14 14 13 12 10 10 10 10 9 8 8 7 6 5 6 7 7 7 7 6 5 5 5 5 4 3 3 3 4 4 5 5 5 5 5 7 8 9 10 10 12 15 16 16 17 17 19 21 21 20 19 19 19 21 22 22 21 21 21 22 22 24 25 26 26 26 27 28 30 29 28 27 27 28 29 29 30 34 34 30 27
18 17 17 16 15 15 13 11 11 12 11 10 10 9 10 8 6 6 6 6 5 5 5 5 5 6 7 7 7 6 5 5 5 5 5 5 5 4 4 5 6 8 9 10 12 14 15 16 17 18 19 20 20 19 18 19 19 20 20 20 21 21 22 22 22 23 25 25 26 27 27 29 29 28 26 26 26 27 29 27 27 30 33 32 30
19 18 17 15 15 13 12 12 13 13 11 9 10 10 9 8 6 5 4 3 3 3 4 5 7 9 10 11 10 8 7 5 5 5 5 5 6 6 5 5 6 7 9 10 12 14 16 17 19 20 21 21 21 21 20 21 21 21 21 21 21 22 22 22 22 23 24 24 25 26 27 27 27 26 25 25 26 26 27 26 26 28 30 31 31
20 19 17 16 15 13 12 12 13 13 11 10 10 9 8 7 6 4 2 1 2 2 4 6 8 10 11 12 11 9 7 6 5 6 6 6 7 7 7 7 7 8 9 10 12 14 16 18 19 21 22 22 23 23 23 23 23 23 23 21 22 22 23 24 24 23 23 23 24 25 25 25 24 23 23 25 25 25 25 25 26 29 30 30 30
21 20 19 16 15 14 13 14 14 14 12 11 9 8 7 6 5 4 3 3 2 2 4 6 8 10 11 12 11 8 6 5 6 7 8 8 8 9 9 9 9 10 10 11 12 14 15 18 20 22 23 24 25 25 25 25 24 24 23 22 23 24 25 25 25 24 23 23 24 23 23 23 22 21 22 22 23 24 24 25 25 28 30 29 28
22 20 17 15 14 14 13 14 14 14 13 11 9 8 7 6 5 3 3 3 2 2 3 6 8 9 10 11 10 7 5 4 5 7 8 8 8 9 9 9 10 11 11 12 12 13 15 17 19 21 22 23 24 24 25 25 25 24 23 23 23 24 26 27 27 25 23 23 25 23 23 22 22 22 23 23 22 22 24 25 24 25 26 27 26
22 19 17 16 15 14 13 14 15 15 13 11 9 8 6 5 5 5 6 6 5 4 5 6 8 10 12 12 12 10 7 5 6 8 9 9 9 9 9 9 10 11 12 12 13 13 14 15 17 19 20 21 22 23 24 25 25 25 24 23 23 24 24 25 25 24 23 23 25 24 23 22 20 21 21 21 22 22 22 24 24 24 24 25 25
22 21 19 17 16 15 15 16 17 15 13 10 9 8 9 10 10 11 12 12 12 11 11 12 14 15 16 16 16 16 14 13 13 13 13 13 13 13 12 12 12 12 12 12 13 13 13 14 15 17 19 20 22 22 23 23 24 24 24 23 23 22 22 22 22 22 22 23 24 23 22 21 20 20 20 19 20 21 22 25 27 26 25 25 25
24 23 20 18 17 16 17 17 16 14 12 11 11 12 14 15 16 16 16 16 16 15 15 16 17 18 18 18 18 18 17 17 16 16 16 17 17 17 16 16 15 15 15 14 14 13 14 15 16 18 20 21 22 24 24 23 23 23 23 23 22 21 21 20 20 20 21 21 23 23 22 20 18 19 20 20 20 21 22 23 26 27 26 26 26
27 25 22 19 17 17 17 17 16 15 14 14 15 16 17 17 16 16 16 16 16 16 16 17 17 17 18 17 17 16 16 16 16 16 17 17 18 17 17 17 18 18 18 18 17 17 17 17 18 19 20 21 22 23 24 24 24 23 23 23 22 21 21 20 19 20 20 20 21 23 23 20 17 16 16 18 19 20 21 21 21 22 23 25 27
27 25 22 20 18 17 18 18 17 16 17 18 18 17 16 15 15 14 14 14 15 15 15 16 16 16 16 16 16 15 14 15 16 17 18 18 18 17 17 18 18 18 19 19 19 19 19 19 19 20 20 22 22 23 24 25 25 26 25 25 24 23 22 21 20 20 19 19 19 21 22 20 17 15 14 14 15 16 18 18 18 18 19 21 24
26 24 22 20 19 19 19 20 19 19 19 19 17 15 14 14 13 12 11 12 12 12 13 14 15 15 15 15 14 13 13 14 16 18 19 20 20 19 19 19 20 20 21 21 21 20 20 20 20 20 21 22 23 24 26 27 28 27 27 26 26 26 24 23 22 21 20 19 18 20 20 18 15 15 15 15 16 16 17 17 18 19 20 20 22
26 23 22 21 20 21 22 21 21 20 19 17 16 15 14 13 11 10 10 11 10 11 12 13 13 13 13 12 11 11 12 13 16 19 21 22 22 22 22 22 23 23 23 23 22 22 22 22 22 22 22 23 24 25 28 29 29 28 27 27 27 27 27 25 23 22 21 19 19 19 20 20 17 16 17 18 18 18 18 19 18 19 21 22 23
26 24 24 23 23 23 23 22 21 19 18 17 17 16 14 12 11 11 11 11 10 11 12 13 14 13 12 11 11 12 13 15 19 21 22 23 24 24 24 25 25 25 25 25 25 25 25 25 25 25 24 24 25 26 27 28 28 28 27 26 26 26 27 27 25 24 23 21 20 19 20 21 21 21 21 20 19 18 18 20 20 20 21 22 23
26 26 25 24 24 23 22 22 21 19 18 18 18 16 14 13 12 12 12 11 10 10 12 15 17 18 17 15 15 16 17 19 21 22 22 23 23 24 25 25 25 26 26 26 26 26 27 27 28 27 26 25 25 26 27 27 28 28 27 26 25 25 25 26 26 25 24 24 22 21 21 21 22 23 23 22 21 20 18 19 21 21 22 22 23
27 27 26 24 24 23 21 22 22 20 19 18 17 16 15 15 14 13 12 11 9 11 14 18 21 22 23 22 22 22 23 23 23 23 22 22 23 24 24 24 24 25 25 25 26 27 27 27 27 27 27 26 25 26 27 27 28 29 29 27 26 25 25 25 25 25 24 25 24 24 22 22 22 23 24 23 23 23 21 20 21 22 22 22 23
28 27 26 25 24 23 22 23 22 20 19 17 16 15 16 17 16 14 12 10 11 15 19 21 23 24 25 26 26 26 26 26 25 25 24 24 24 24 24 24 24 24 25 25 26 26 26 26 26 26 26 25 25 25 26 27 28 29 30 29 28 26 25 24 24 24 24 24 25 25 24 23 23 23 24 25 24 25 24 23 22 22 22 23 23
29 28 27 26 26 24 23 23 21 19 18 16 15 15 17 17 18 16 14 13 15 20 23 24 25 25 26 26 26 27 28 27 27 27 26 26 26 25 24 24 25 26 27 27 27 26 26 25 25 25 25 25 25 25 26 27 27 29 30 31 31 29 27 25 25 24 24 24 24 25 25 25 25 24 24 25 25 25 26 25 24 23 22 22 22
30 29 28 27 26 25 23 23 21 19 18 17 15 16 17 17 17 17 16 16 19 22 24 24 25 25 26 26 26 27 28 28 28 28 29 30 29 27 26 26 27 28 29 28 28 27 26 25 24 23 23 24 25 25 26 27 27 28 30 31 32 32 31 29 27 25 25 24 24 24 24 25 26 26 25 25 25 25 25 26 25 24 22 22 21
31 29 28 27 26 25 24 23 21 19 18 17 16 16 17 17 18 19 20 21 21 23 24 24 24 25 25 25 26 26 27 28 28 29 31 31 30 29 28 27 28 28 29 29 29 28 27 26 24 23 22 23 24 24 26 27 27 28 29 31 32 33 34 33 32 30 28 26 25 25 25 25 25 26 25 25 25 25 26 26 26 25 24 22 22
30 28 27 26 25 24 23 22 21 19 17 17 17 16 17 18 18 19 21 22 22 23 23 23 23 23 23 24 24 25 26 27 28 29 30 31 30 29 28 28 28 29 30 31 30 29 28 27 26 24 22 22 23 23 25 27 28 28 30 32 34 35 36 37 36 34 32 30 28 27 27 26 26 26 26 26 26 26 25 26 27 27 26 24 23
30 28 27 27 25 24 23 22 21 20 18 18 18 17 17 18 18 19 20 21 21 22 22 22 21 21 21 22 22 23 25 26 27 28 29 30 30 29 28 28 29 30 31 31 31 30 29 29 27 25 22 21 21 22 23 25 27 28 30 33 35 37 38 39 39 37 36 34 32 30 29 28 27 28 28 28 28 27 26 26 26 27 27 26 23
29 28 28 28 26 25 24 22 21 21 19 18 18 17 17 18 18 18 19 19 19 20 20 20 20 19 19 19 20 21 23 24 25 27 27 28 28 28 28 28 29 30 32 32 31 30 30 30 29 26 23 21 20 20 21 23 26 27 30 32 35 38 39 41 41 40 39 37 35 33 31 30 29 30 30 30 30 30 28 27 26 26 27 26 23
29 28 28 27 26 25 24 22 22 22 20 19 18 18 18 18 18 18 18 18 17 17 17 18 18 17 17 17 18 19 21 22 23 25 26 27 27 27 26 27 28 30 31 32 32 32 32 32 32 29 25 21 20 19 19 21 24 26 29 31 34 38 40 41 42 41 40 40 38 36 34 32 30 30 30 31 31 31 30 29 27 26 26 25 23
29 28 28 27 26 25 24 23 23 23 21 19 18 18 18 17 17 17 17 17 16 14 14 15 15 16 15 15 16 17 19 20 21 22 24 25 26 26 26 26 27 29 31 32 33 33 33 34 34 32 27 21 19 19 19 21 23 25 28 31 34 37 39 41 42 40 39 39 39 37 35 33 31 28 28 30 30 30 30 29 27 26 25 24 23
29 28 28 28 26 25 25 24 23 23 21 18 17 17 17 17 16 16 16 16 14 12 12 11 12 13 13 14 14 15 16 18 19 20 22 24 25 25 25 25 27 28 30 32 33 34 34 35 35 35 31 24 20 19 20 22 24 26 27 30 33 36 39 41 41 39 37 37 37 36 34 32 30 26 25 26 27 28 28 28 27 26 24 21 20
30 29 28 28 27 26 25 24 23 22 20 18 17 17 17 17 15 14 14 14 12 11 10 9 9 10 11 12 12 13 14 16 17 19 20 22 24 24 24 25 26 28 30 32 33 34 35 35 36 36 34 28 23 21 22 23 25 27 28 28 32 36 38 40 40 37 35 35 34 33 32 30 28 24 22 22 24 26 27 26 25 25 24 19 16
31 30 28 28 28 27 26 23 22 21 19 17 17 17 17 16 14 13 13 11 11 10 10 9 8 8 9 10 10 11 12 14 15 17 19 21 22 23 23 24 26 28 30 32 33 34 34 35 35 36 36 33 28 25 24 24 26 28 27 28 31 35 37 38 38 35 33 32 31 30 29 28 26 23 20 19 21 23 25 25 23 22 21 17 12
31 29 28 28 29 28 26 23 21 20 19 18 17 17 16 16 14 13 11 10 9 9 8 8 8 7 7 7 8 9 11 12 14 16 18 19 21 21 22 23 25 27 29 31 32 33 33 34 35 35 36 35 32 28 26 26 27 28 27 28 31 33 35 37 36 34 32 30 29 28 27 27 26 26 23 20 20 21 23 24 23 22 20 16 12
31 29 29 30 29 27 25 23 22 21 19 17 17 17 16 16 14 12 10 9 8 7 6 7 7 6 6 5 5 8 10 11 13 14 16 18 19 20 21 23 24 26 28 30 31 32 32 33 34 34 34 35 35 31 28 27 28 28 28 29 30 32 35 36 35 33 31 29 28 28 27 27 28 29 27 25 22 21 22 23 23 23 22 21 18
30 28 30 32 29 27 26 24 23 21 19 17 17 17 16 16 14 12 10 9 8 7 6 7 6 5 5 4 4 7 10 11 12 13 15 16 17 18 20 21 22 24 27 29 30 31 31 32 33 33 33 35 35 34 31 28 28 29 29 28 30 32 35 36 35 33 31 31 32 31 29 29 30 31 31 30 27 25 24 25 25 24 22 21 20
29 28 31 32 29 27 26 24 23 21 19 17 16 15 15 14 12 9 8 7 8 8 7 7 5 4 4 4 4 7 9 11 11 12 14 15 15 17 19 20 21 23 26 27 29 30 30 31 32 32 33 34 35 35 32 28 28 28 27 28 30 32 32 34 34 32 32 33 35 35 34 34 35 36 36 35 34 32 30 28 27 26 24 21 18
30 27 28 31 30 27 25 24 22 20 18 15 14 13 13 12 9 8 8 8 8 7 6 5 4 3 4 5 6 7 9 10 11 12 13 14 14 16 17 19 20 22 24 25 27 27 28 29 30 31 33 34 35 35 31 26 24 25 25 27 29 29 29 31 31 31 33 37 38 39 39 39 38 38 38 38 38 37 35 33 31 28 26 25 23
29 26 26 30 31 27 24 23 22 20 17 15 13 13 13 11 10 9 8 8 7 6 4 4 3 2 5 7 8 8 10 11 12 12 12 12 14 15 17 18 19 21 22 23 24 25 26 27 28 29 31 32 33 33 30 26 23 22 23 26 25 24 26 28 27 30 35 39 40 41 40 38 37 37 38 38 38 38 37 37 36 33 29 27 25
28 26 26 30 30 28 24 23 22 20 17 15 15 14 13 12 11 9 7 6 6 5 4 4 4 3 5 7 7 9 11 12 13 13 12 11 13 14 16 17 18 20 20 21 22 23 24 25 26 27 29 29 30 30 29 28 25 22 22 24 22 21 25 27 26 28 34 37 38 40 39 37 36 36 36 36 36 36 37 36 37 37 35 31 27
Wind_Direction
149 153 150 152 154 155 157 154 155 157 159 170 176 172 172 180 189 193 202 215 223 230 243 249 255 263 266 267 269 276 282 282 284 289 296 296 293 293 290 291 292 290 289 291 296 305 307 305 306 307 306 303 303 307 307 304 299 294 292 291 291 291 289 290 292 291 290 289 287 287 283 278 276 275 272 270 268 266 263 259 257 254 255 256 254
150 153 151 156 159 162 164 161 162 159 156 166 173 171 174 181 189 196 207 221 230 238 245 252 259 263 264 266 269 274 280 281 281 283 287 289 290 289 290 292 292 290 291 294 299 304 306 310 311 310 306 303 303 306 305 303 299 296 295 293 293 293 291 291 291 292 291 292 294 293 288 284 279 276 273 271 268 267 266 263 260 256 254 253 253
142 147 147 153 160 165 167 165 167 166 161 166 173 174 176 179 185 192 201 213 226 240 248 257 261 262 268 274 282 287 288 291 293 293 293 297 299 298 299 301 300 298 297 298 300 302 306 310 312 311 309 305 301 300 300 301 302 301 299 296 296 295 294 292 292 293 290 292 295 292 291 291 288 283 277 273 271 269 268 266 264 260 257 252 250
132 136 142 150 159 163 163 164 169 171 170 176 185 189 189 190 194 199 211 221 231 247 256 262 263 264 270 273 282 287 288 293 296 296 298 307 312 310 311 313 311 306 300 299 300 300 303 306 309 309 308 305 300 298 298 299 301 301 299 298 297 296 295 296 295 294 291 291 290 288 290 289 285 285 285 282 278 273 269 266 264 262 259 254 250
129 132 143 152 158 161 158 162 167 169 171 174 184 203 216 222 224 226 239 246 250 263 267 270 270 268 269 269 274 279 280 280 277 274 279 290 299 305 315 321 321 314 305 300 296 295 299 303 306 305 304 303 300 300 301 301 302 300 300 299 297 297 298 298 296 295 293 289 283 282 283 280 279 286 290 288 284 278 274 270 265 261 258 254 252
134 134 141 144 148 155 158 164 166 165 169 171 182 206 226 237 243 252 266 272 272 275 278 282 283 283 280 276 274 277 280 280 278 278 282 290 295 299 308 315 321 323 319 311 301 297 297 299 299 299 300 300 300 302 304 305 305 304 303 301 299 299 299 297 295 295 293 288 282 280 279 278 280 283 284 284 284 281 277 272 267 262 257 254 252
140 135 136 139 141 148 155 165 170 174 180 180 190 207 217 227 239 259 275 282 286 287 287 286 287 289 289 287 285 285 285 285 285 287 290 294 297 298 299 301 305 310 316 318 312 304 300 297 296 296 296 296 298 302 304 305 304 303 303 300 298 296 295 294 293 295 296 293 290 287 283 281 280 280 279 281 281 278 275 272 270 266 259 254 251
142 134 134 142 146 148 154 166 172 180 190 189 195 207 209 216 235 262 275 284 291 290 287 283 281 283 283 284 287 284 283 284 284 286 287 286 288 291 294 296 299 299 300 303 304 303 300 297 295 296 297 296 297 301 302 302 301 301 299 295 295 293 291 291 293 296 297 296 296 294 290 286 284 283 283 280 276 273 271 269 268 267 260 253 250
140 133 133 142 146 148 157 170 174 177 187 189 195 204 213 226 245 262 274 283 287 286 285 281 277 276 273 273 274 275 276 277 279 281 281 281 284 287 288 292 295 296 296 295 295 295 295 295 294 294 296 297 297 299 300 300 300 299 298 296 295 294 293 293 293 295 295 295 296 295 295 293 290 287 285 282 275 270 267 265 266 265 259 251 247
135 130 131 137 138 140 150 165 176 177 184 193 203 217 236 256 263 268 275 280 282 280 279 277 273 269 266 264 264 267 269 269 272 274 275 278 281 283 287 290 292 292 292 292 292 292 291 292 291 291 292 293 293 294 295 298 298 297 298 298 298 299 299 297 295 294 293 293 293 293 294 294 292 287 283 280 276 271 268 266 265 262 259 256 250
133 129 127 132 132 133 144 156 162 164 177 202 224 248 267 280 281 280 280 281 283 281 275 271 268 265 261 259 259 262 264 265 267 269 271 272 273 276 280 282 285 288 289 289 288 287 286 286 287 288 289 290 291 291 293 295 296 296 298 299 300 299 298 297 295 295 295 295 294 293 291 290 290 286 283 279 275 273 269 265 264 261 259 259 258
133 130 124 125 125 123 130 133 127 129 144 215 290 295 291 291 285 279 279 286 310 321 294 271 261 257 257 258 259 260 262 264 267 269 271 273 275 276 272 268 271 276 280 281 280 280 281 282 283 284 285 287 289 290 291 292 293 295 296 297 296 295 294 294 293 293 294 294 294 293 291 288 286 285 285 281 275 273 271 266 266 263 257 257 258
134 129 123 119 118 114 109 108 115 122 121 22 327 309 292 290 284 269 278 25 19 17 14 347 264 245 248 253 256 261 264 267 270 274 277 283 289 291 287 278 274 274 273 271 272 276 279 280 280 281 282 284 287 288 289 289 291 293 293 294 294 293 293 292 291 291 290 290 290 290 289 287 285 284 286 283 275 273 270 266 266 264 259 258 256
134 127 124 118 116 113 106 109 118 121 113 95 323 301 287 329 68 79 54 39 27 24 28 34 40 236 241 247 254 259 265 270 273 276 280 287 295 303 310 309 303 298 285 277 277 280 283 285 285 285 285 287 288 288 287 287 289 292 294 295 295 295 295 294 292 292 291 291 290 290 289 288 286 284 286 284 279 275 272 268 267 264 259 256 252
131 127 122 117 115 111 109 116 123 121 112 107 140 248 110 99 104 87 60 44 31 27 31 42 51 54 360 266 267 269 273 279 283 286 283 285 291 296 300 301 298 297 295 295 293 289 288 290 290 290 290 290 290 289 288 289 291 294 296 297 297 298 298 296 294 294 294 292 290 288 286 285 284 284 283 281 279 276 273 272 269 261 252 247 241
131 127 122 119 118 113 116 125 129 121 113 116 125 121 109 116 125 97 66 52 39 30 29 39 47 49 47 30 346 309 304 309 317 318 306 302 303 300 298 297 298 297 299 301 296 292 294 295 295 296 296 296 295 295 293 292 293 295 296 297 300 301 300 297 296 296 296 296 295 293 288 283 282 282 281 278 276 275 272 270 268 260 249 240 235
132 128 125 123 122 121 123 127 124 115 116 123 123 117 118 129 127 99 80 67 50 30 26 34 39 45 46 41 24 5 8 14 16 9 351 341 332 320 312 307 308 308 307 308 300 299 305 307 305 304 304 304 303 302 300 297 295 295 296 299 304 306 305 303 302 301 299 298 299 298 295 291 286 281 279 277 275 275 272 268 266 262 253 242 235
133 129 128 128 127 125 122 119 116 117 122 124 120 120 125 129 122 106 90 65 40 19 20 24 27 38 41 39 34 28 33 41 39 34 19 5 351 339 326 310 307 308 309 311 306 305 311 310 307 306 307 308 307 306 304 300 297 295 297 301 304 305 305 307 308 307 305 301 298 296 295 294 291 284 279 280 278 273 270 266 263 262 256 243 235
137 135 134 135 133 127 120 119 122 124 127 124 121 125 127 126 119 108 83 44 31 17 10 12 21 30 32 33 34 32 35 41 42 33 19 10 4 358 348 330 321 315 314 313 309 310 314 311 309 309 310 311 311 309 306 302 299 298 300 303 304 304 304 306 308 309 309 306 301 297 294 292 291 287 282 283 280 270 265 265 262 260 255 244 237
140 138 136 135 132 128 125 129 132 132 132 131 130 128 125 123 119 111 102 88 79 26 2 7 16 18 21 27 32 36 40 39 34 22 9 10 12 6 360 351 337 324 319 318 316 318 319 317 318 319 318 317 316 315 312 309 307 308 309 310 312 311 309 308 308 310 313 314 306 300 296 294 293 290 285 284 281 271 267 268 264 258 252 244 239
140 138 136 136 134 133 133 136 138 138 137 137 134 130 126 122 113 110 121 118 91 41 13 8 9 9 14 25 34 47 59 50 32 16 9 13 15 11 9 360 344 333 329 327 325 325 324 322 322 323 324 324 322 320 318 315 313 315 316 316 317 316 315 313 310 310 315 317 312 303 297 295 293 292 290 288 282 272 269 270 263 255 250 245 243
141 140 139 141 140 138 140 140 143 144 139 134 131 129 125 111 99 106 120 112 86 50 22 5 7 16 24 34 46 62 76 56 29 17 14 17 18 17 12 359 351 350 346 340 336 332 328 326 325 325 326 328 328 327 325 321 317 316 316 317 317 318 317 316 313 312 314 314 312 308 302 298 295 293 291 288 284 274 268 269 263 252 246 244 244
140 140 141 142 139 138 141 143 146 143 134 128 124 120 111 98 99 108 106 100 87 74 63 50 52 56 56 57 61 66 67 53 37 29 24 23 22 18 9 357 354 354 350 347 346 342 336 332 329 329 329 331 332 333 333 331 327 322 319 317 317 319 319 317 316 314 313 310 310 309 306 304 303 298 291 286 284 278 267 264 263 253 245 244 244
141 140 139 140 137 135 136 139 140 135 128 124 118 111 106 103 105 104 98 94 90 88 85 81 77 73 70 69 67 65 63 57 51 45 39 34 31 28 23 16 9 2 357 354 351 346 341 337 335 335 336 337 338 338 338 337 335 332 328 322 319 319 319 319 318 316 312 309 309 307 303 305 308 303 296 290 287 284 272 260 256 249 244 248 250
144 141 140 141 138 134 134 135 135 132 128 122 116 112 110 108 104 99 94 90 87 86 84 81 79 77 76 74 70 66 62 58 54 50 44 39 35 33 32 30 27 24 20 15 8 0 354 350 348 347 346 345 343 342 341 341 339 338 336 332 326 321 319 319 319 317 313 308 307 305 299 299 306 306 302 297 290 287 281 268 258 250 245 248 250
145 142 141 142 140 137 138 137 135 131 126 121 118 116 113 109 103 96 90 86 84 83 83 82 81 79 76 72 69 63 58 54 51 47 44 40 38 36 34 34 33 32 30 27 24 18 13 9 5 1 357 354 351 347 345 344 343 342 340 337 332 327 322 320 319 318 314 308 306 305 299 293 295 301 304 301 294 288 284 277 267 258 254 254 252
145 142 143 143 141 142 143 141 136 130 125 123 122 121 118 112 105 98 92 89 88 86 85 84 80 75 70 65 61 56 53 50 45 44 44 44 45 43 40 37 33 31 30 28 26 23 21 18 15 11 7 3 359 354 351 350 349 347 344 340 337 332 325 320 318 317 313 307 305 305 300 290 284 288 293 297 295 290 285 278 271 267 265 261 257
145 144 144 143 143 144 143 140 136 131 129 129 127 125 122 114 107 103 99 98 98 93 88 82 74 67 62 57 57 56 54 48 43 43 47 49 50 47 43 39 34 31 29 26 25 24 22 21 18 16 13 10 6 2 359 356 354 352 348 344 341 336 330 323 317 315 312 308 304 304 303 297 286 281 283 284 283 282 282 278 272 273 274 269 263
147 147 145 143 143 144 142 140 137 135 134 131 127 124 120 113 109 108 108 110 108 96 87 78 68 63 60 59 64 64 57 49 45 47 48 49 49 47 43 41 37 33 31 28 26 25 23 22 20 17 15 13 11 11 9 4 358 356 353 349 345 339 336 330 322 317 314 309 303 301 304 306 299 286 280 278 273 268 269 271 269 271 274 274 270
151 150 146 143 142 143 142 141 141 141 138 132 128 123 117 111 112 115 114 115 112 98 85 76 71 72 73 73 74 70 61 55 51 50 49 48 47 44 42 40 38 35 33 31 28 25 23 22 20 18 16 14 15 16 15 10 4 0 357 353 349 345 341 338 332 325 320 315 310 303 301 302 298 291 284 278 271 265 261 263 263 263 266 269 270
154 153 149 146 145 145 146 146 146 144 140 134 129 122 111 106 112 120 119 117 112 96 85 84 83 84 85 84 80 74 67 60 56 53 51 50 47 45 42 39 37 35 33 31 28 25 23 21 20 18 16 16 16 17 15 13 10 7 2 358 355 351 347 345 342 337 329 322 318 311 305 301 298 295 290 281 273 267 263 262 263 263 262 261 261
156 157 154 152 150 148 148 150 150 147 143 137 130 120 107 101 106 117 121 119 110 95 94 95 91 85 83 82 79 74 68 62 58 55 54 51 48 45 42 39 36 33 31 30 27 25 22 20 19 18 18 16 16 17 15 13 13 12 8 5 1 357 353 350 347 345 339 333 326 320 315 311 307 304 299 290 279 271 268 266 268 269 268 263 257
153 155 156 155 153 149 147 149 150 149 143 137 130 120 107 98 99 108 117 115 105 100 101 98 89 82 79 77 73 70 66 63 60 58 55 52 49 46 43 40 37 33 30 29 27 25 23 20 17 17 18 17 14 14 14 13 13 13 11 9 7 3 359 355 352 349 347 343 337 330 325 321 318 311 303 296 287 278 272 268 267 270 272 270 262
150 152 153 153 154 151 146 146 148 147 141 136 131 121 108 97 94 101 109 109 106 105 100 93 85 79 75 71 68 65 63 61 60 57 54 52 50 48 45 41 37 33 30 28 26 24 23 21 18 16 16 16 14 12 12 11 12 13 12 11 9 7 4 1 357 354 351 348 345 340 336 334 332 326 315 306 298 288 279 272 267 266 269 270 267
153 153 152 153 154 151 147 146 145 144 141 138 133 124 112 99 95 100 108 110 110 105 96 88 83 77 71 67 64 63 61 59 57 54 52 51 49 47 44 40 37 34 31 28 26 24 24 22 19 15 14 13 13 11 10 10 10 11 12 12 11 9 7 5 2 360 357 353 348 345 344 343 342 340 334 324 313 301 290 281 274 268 267 266 265
160 157 156 155 155 152 149 146 144 143 142 139 135 130 118 105 100 104 108 108 107 102 94 88 83 76 70 65 62 60 58 56 54 52 51 49 47 44 42 39 36 33 31 29 27 25 24 23 20 16 13 11 10 10 9 9 8 8 9 11 11 10 9 8 6 4 2 359 355 351 348 347 346 344 342 337 327 314 302 292 283 274 268 265 262
162 161 158 155 155 153 150 146 143 142 143 140 138 136 126 112 107 109 109 106 102 98 93 88 83 77 71 65 60 57 55 54 52 51 50 48 45 43 41 37 34 32 31 29 29 28 26 24 21 17 13 9 7 9 9 8 7 7 8 9 9 9 9 8 7 6 5 3 1 359 354 350 349 347 346 344 338 326 314 304 293 281 273 267 262
161 160 157 155 155 153 150 147 146 145 145 143 140 138 131 118 111 113 113 108 102 97 93 89 84 79 73 65 60 55 53 51 50 49 47 46 44 42 39 37 34 32 31 30 30 30 28 27 24 19 13 8 5 6 8 8 8 7 8 8 8 7 7 6 5 5 5 4 3 2 359 354 351 350 350 349 346 339 328 317 305 291 280 272 265
160 159 156 155 155 152 151 150 149 148 147 145 142 139 135 124 113 114 116 112 106 99 93 89 85 81 75 67 60 54 50 48 45 44 44 43 42 41 39 36 34 32 31 30 30 30 29 29 27 23 16 9 5 5 7 9 9 8 8 8 7 6 6 5 3 2 2 2 2 1 360 357 354 351 350 350 349 345 339 331 320 306 291 278 268
159 159 157 156 155 153 153 151 150 149 149 148 146 142 139 128 114 112 115 113 109 103 97 91 85 81 77 69 59 52 47 43 40 39 40 40 40 40 39 36 34 32 31 29 29 29 29 28 28 26 21 13 8 7 7 10 13 12 9 7 7 6 6 4 3 2 0 0 360 359 359 357 354 351 348 348 349 347 344 339 331 320 304 288 274
159 159 158 157 155 154 152 150 150 150 151 152 149 144 143 134 119 113 113 111 111 110 105 98 89 82 77 69 60 50 43 40 37 34 34 37 38 38 38 36 34 32 30 29 29 29 28 27 26 25 24 19 13 11 12 12 14 15 11 7 6 8 7 4 2 2 0 360 358 358 357 356 354 350 346 346 348 348 345 342 338 333 319 299 283
159 159 159 157 155 154 153 151 151 152 154 156 153 146 142 136 125 118 115 112 112 114 112 105 94 85 76 68 59 49 43 40 35 31 30 33 36 36 36 36 34 31 30 29 28 28 28 27 25 24 25 25 20 16 16 15 15 15 11 6 6 9 7 4 3 2 1 1 359 357 357 356 354 351 346 347 349 349 348 347 344 339 329 312 295
159 160 161 160 156 154 153 150 150 153 156 157 156 148 142 139 133 126 120 116 115 115 113 111 102 88 78 69 59 49 44 39 34 30 28 30 33 34 35 35 33 32 30 28 27 26 26 26 25 24 25 25 23 20 20 20 19 15 10 5 6 8 6 4 5 3 1 1 1 359 359 358 357 354 350 352 355 355 354 354 350 344 338 330 310
159 159 161 160 156 152 151 150 151 153 154 154 153 147 142 142 138 131 126 124 121 116 110 110 109 98 86 75 61 50 43 37 32 29 26 27 30 32 33 33 33 32 31 28 26 25 25 25 24 23 23 23 21 19 20 22 21 16 10 6 6 7 5 5 6 6 4 3 3 3 2 2 3 3 360 357 0 3 3 2 0 355 349 343 330
161 161 163 161 156 152 151 151 153 153 152 153 152 147 144 143 138 131 130 133 133 125 112 107 109 106 96 81 61 46 39 33 29 27 25 26 28 30 32 32 32 32 31 29 26 24 24 24 23 22 22 20 18 16 16 18 19 16 11 8 7 7 6 6 8 9 8 7 8 8 8 9 13 15 13 9 10 12 12 11 11 12 10 8 7
162 163 164 162 157 154 152 152 153 154 152 151 150 147 145 145 143 141 144 149 153 147 125 110 104 96 93 83 55 38 32 28 26 25 26 26 26 29 31 31 32 33 31 29 27 25 23 22 22 21 21 18 16 14 12 13 15 16 12 9 9 9 8 8 11 12 12 13 15 15 16 19 23 24 24 22 20 19 18 16 17 21 25 27 30
162 161 163 161 157 155 154 153 154 156 155 152 150 147 145 146 147 150 155 162 172 170 141 117 102 85 85 81 44 31 28 24 23 25 26 26 27 30 31 31 32 34 32 30 28 25 23 22 21 20 20 19 17 14 12 10 9 10 10 9 11 11 10 10 12 14 17 21 23 23 23 25 28 30 31 30 29 27 27 26 26 29 33 37 40
162 160 162 163 160 157 156 156 155 158 160 159 155 152 151 151 151 151 150 154 162 162 144 128 115 90 80 71 45 34 28 23 22 25 27 29 30 32 32 32 33 33 32 30 29 27 26 24 21 20 19 19 18 16 14 11 7 7 10 11 10 11 12 13 13 16 22 27 28 27 27 27 27 29 29 30 31 31 32 34 33 34 38 42 43
164 163 164 165 163 160 159 159 157 157 159 160 160 160 159 160 156 147 137 136 141 145 144 143 136 103 82 72 56 45 38 32 30 29 30 32 34 35 36 36 34 33 32 31 29 29 29 27 25 23 20 19 18 17 16 13 10 11 10 7 7 13 17 16 16 20 26 29 29 29 28 27 26 27 27 28 29 31 32 34 35 35 37 40 42
166 167 168 168 165 162 161 161 159 160 160 158 158 158 161 168 170 157 140 129 127 130 144 165 170 125 89 78 63 54 51 45 40 36 34 36 37 37 39 39 37 34 32 31 30 30 29 29 28 26 23 21 18 18 17 14 13 10 5 4 9 16 17 16 18 23 27 29 29 28 28 27 26 26 27 28 28 30 32 34 35 36 36 37 41
170 169 167 167 166 166 165 164 163 164 163 159 155 154 156 165 171 164 149 139 134 125 125 152 176 150 100 83 68 60 57 50 43 37 36 38 39 38 40 42 39 34 32 31 30 29 28 27 26 25 24 22 18 18 18 17 16 14 11 13 18 19 17 17 19 22 26 30 30 28 27 27 26 25 27 29 30 30 32 33 35 37 38 38 39